BEIDOU-3 M21 (C43)

Last updated on Mon Oct 20 2025 00:03:25 GMT+0000 (Coordinated Universal Time)

1 44794U 19078B 25291.58984277 -.00000062 00000+0 00000+0 0 9999 2 44794 54.1306 308.2872 0002994 7.9535 352.0876 1.86227814 40152
UTC large
Height (km)
Speed (km/s)
/
Latitude / Longitude
Inclination (degrees)
Orbital Period (minutes)
Azimuth
Elevation
Range (km)
Doppler Factor

Next 0 passes for location: London (51.5072 / 0.1276)

Sorry there are no passes over London.